Location: PSU-Greenbush Astrophysical Observatory
(37.5140°N, 94.9880°W)
Time: 14:59:06
(UTC-06:00)

Transit 2A - Pass Details

Date: 27 January 2020
Orbit: 599 x 959 km, 66.7° (Epoch: 25 February)

Event Time Altitude Azimuth Distance (km) Brightness Sun altitude
Rises 04:24:55 0° 337° (NNW) 3,013 - -36.2°
Reaches altitude 10° 04:27:12 10° 343° (NNW) 2,143 - -35.8°
Maximum altitude 04:31:57 52° 60° (ENE) 916 - -34.9°
Exits shadow 04:34:06 32° 118° (ESE) 1,294 7.5 -34.4°
Drops below altitude 10° 04:37:12 10° 136° (SE) 2,360 9.0 -33.8°
Sets 04:39:48 0° 141° (SE) 3,349 9.8 -33.3°
